User: anonymous
Location: Columbia
(38.9520°N, 92.3340°W)
Time: 19:14:12
(UTC-05:00)
Language:

Iridium 52 - Orbit

View from above orbital plane
View from above orbital plane
View from above satellite
View from above satellite

Ground track
Ground track

The orbit data is extracted from the following two-line orbital elements,

1 25169U 98010A   14190.28182413  .00000360  00000-0  12140-3 0  5968
2 25169 086.3961 079.2705 0002365 098.7529 038.6402 14.34215496857859
Epoch (UTC): 09 July 2014 06:45:49
Eccentricity: 0.0002365
inclination: 86.3961°
perigee height: 776 km
apogee height: 779 km
right ascension of ascending node: 79.2705°
argument of perigee: 98.7529°
revolutions per day: 14.34215496
mean anomaly at epoch: 38.6402°
orbit number at epoch: 85785

The dashed part of the orbit path shows where the satellite is in the earth's shadow,  

DLR